Theta_e
284 283 284 284 284 285 284 284 283 281 282 282 282 283 283 284 284 284 284 285 285 286 286 286 287 288 289 289 288 289 289 288 286 289 282 282 284 285 285 287 286 285 288
283 284 283 283 282 282 282 282 281 281 281 281 282 282 282 282 282 282 283 283 284 285 286 285 286 288 286 288 289 287 287 288 287 286 281 280 281 285 285 285 284 285 284
282 281 280 280 280 280 280 281 281 280 279 279 280 280 281 281 281 281 282 282 283 284 284 285 285 285 286 287 287 287 287 288 288 287 287 278 281 282 281 283 282 282 282
281 280 279 279 279 279 279 279 280 280 279 278 279 279 280 280 281 281 281 282 282 283 283 284 284 285 285 286 286 286 286 286 287 285 286 277 279 280 283 281 278 280 280
280 280 280 280 280 279 279 279 279 279 279 278 278 278 279 280 280 279 280 281 281 282 283 283 284 285 287 287 286 286 286 284 285 285 284 277 278 278 280 281 280 280 279
278 279 280 280 281 280 280 280 280 279 279 279 278 278 277 278 282 283 282 280 280 281 281 283 283 283 284 288 289 290 289 286 284 285 285 284 282 281 281 281 280 277 274
279 279 279 280 279 279 279 279 279 278 278 278 278 277 276 277 281 281 281 279 279 280 280 281 281 283 283 284 286 289 290 291 291 287 285 285 285 282 281 280 280 280 281
277 276 277 277 277 277 277 276 276 276 276 276 276 276 276 277 280 280 280 277 277 277 278 279 280 281 282 283 283 283 284 285 287 288 288 287 288 286 283 283 282 282 280
274 274 274 273 271 271 270 271 271 271 271 271 273 273 274 274 278 279 278 275 275 274 276 277 277 278 282 285 283 282 283 284 287 290 291 291 291 291 285 283 281 280 277
271 271 270 269 267 267 267 266 267 266 267 268 267 268 269 268 273 274 275 273 271 272 273 275 277 277 281 283 281 281 282 283 284 284 285 288 290 289 290 283 283 280 280
268 268 267 266 264 264 263 263 263 263 263 262 263 264 265 266 267 271 273 271 270 270 271 273 275 279 281 282 285 283 283 285 285 284 283 284 285 286 286 284 284 283 281
266 264 263 262 262 262 260 261 261 260 260 260 260 261 263 264 267 269 271 272 273 270 270 272 274 278 280 282 283 285 286 287 285 284 283 282 282 283 285 285 283 284 285
261 260 260 260 261 261 260 260 259 260 259 259 260 260 261 264 264 268 270 270 271 268 269 272 275 276 278 280 284 285 284 284 285 284 281 281 282 284 284 283 283 281 279
258 259 260 260 259 260 260 260 259 259 259 259 259 259 260 261 262 264 264 264 267 268 269 268 270 274 277 279 280 281 281 282 284 284 282 282 282 282 281 281 279 277 277
259 260 259 259 258 259 259 259 260 261 262 261 263 264 264 264 266 270 270 269 269 269 268 268 269 270 271 272 276 277 279 282 282 284 283 281 280 280 279 279 279 277 276
258 259 259 259 258 259 258 259 264 266 268 269 270 269 268 271 272 272 272 273 273 273 269 267 267 268 269 270 272 275 279 280 281 283 282 280 279 278 277 277 277 276 274
258 259 259 258 258 258 258 258 257 261 266 268 269 270 271 271 272 272 273 273 273 272 267 267 267 268 269 270 273 275 276 279 281 282 280 279 278 277 276 274 274 274 273
258 259 258 258 258 258 258 258 259 258 258 260 266 268 270 272 271 272 273 273 267 267 266 265 266 268 269 269 272 275 277 279 279 279 279 278 276 274 274 273 273 273 272
258 258 258 258 259 259 259 259 260 260 260 261 263 267 267 270 270 271 272 267 265 265 265 266 266 267 268 270 273 276 277 276 277 276 276 276 275 273 273 272 272 272 271
258 259 259 258 258 258 259 259 259 260 260 262 262 263 264 266 264 264 265 266 267 266 265 267 268 269 270 271 275 277 275 275 274 274 274 274 274 273 272 271 271 270 270
258 257 257 257 257 257 258 259 259 260 260 260 261 263 269 263 261 262 262 264 264 265 266 271 271 274 276 276 275 274 273 272 272 272 272 271 272 270 271 271 270 270 269
256 256 256 256 256 257 257 258 259 259 259 259 260 261 266 261 261 261 261 262 263 265 266 268 269 270 272 272 272 271 271 270 270 270 270 270 270 270 269 269 268 268 268
256 256 255 255 256 256 257 257 258 259 259 259 260 260 260 260 260 261 261 262 262 263 264 266 267 267 269 269 270 270 269 269 270 270 269 269 269 268 268 267 267 267 266
254 254 255 255 255 255 256 257 258 258 259 259 259 260 260 260 260 260 261 261 261 262 262 263 264 265 266 267 267 268 268 269 270 270 269 268 268 267 267 267 266 266 266
252 252 253 253 254 255 255 256 257 257 258 258 258 259 259 260 260 260 261 261 261 261 262 263 263 264 264 265 267 267 268 268 268 268 268 268 267 267 266 266 266 266 265
251 250 251 253 253 254 255 255 256 256 256 257 258 258 259 259 260 260 261 261 261 261 261 262 263 265 265 266 267 268 269 268 267 267 267 266 266 265 265 265 264 264 264
Wind_Speed
1 2 3 4 5 5 5 6 6 7 8 9 9 7 7 7 7 7 8 9 8 10 9 9 10 9 10 9 8 10 12 11 17 11 4 6 10 12 11 13 11 13 13
2 3 4 4 5 5 6 6 7 7 6 8 10 11 11 9 8 7 9 9 10 11 11 9 11 8 10 12 11 13 12 12 12 19 7 6 8 15 14 15 12 11 12
5 6 6 7 8 7 7 8 7 6 6 7 7 9 10 12 12 12 11 11 10 11 12 12 11 9 12 10 12 12 11 11 13 13 12 4 6 6 5 8 11 11 8
4 5 6 7 7 6 6 7 7 8 10 9 9 10 10 11 11 12 13 13 12 11 11 13 11 11 13 12 12 14 12 12 12 11 12 5 5 4 9 10 8 8 10
6 6 7 7 6 7 7 8 8 9 10 10 10 11 11 11 10 11 12 13 13 14 14 12 12 13 18 17 10 13 13 11 12 12 14 5 7 5 15 8 11 9 9
6 7 7 7 10 11 10 11 12 13 13 13 14 14 15 11 22 25 22 14 15 15 15 14 13 14 16 25 26 28 22 15 16 14 14 17 17 11 10 12 11 8 7
7 10 12 12 14 15 15 16 17 17 16 16 15 14 16 17 28 29 29 16 16 17 17 16 15 12 14 15 21 27 28 30 31 19 20 21 17 13 12 14 15 13 12
8 8 9 12 13 14 15 16 17 16 18 18 19 19 19 17 30 30 30 19 16 19 20 20 18 19 18 17 16 17 18 18 21 18 22 21 19 11 18 18 18 17 1
10 10 8 9 11 14 15 18 18 17 18 18 19 21 21 21 31 32 30 18 18 21 19 20 21 22 28 31 19 18 19 19 19 29 31 32 30 27 20 11 13 11 9
9 10 11 12 12 13 14 17 18 17 20 17 21 20 23 24 32 37 33 17 19 16 20 22 32 27 35 34 21 18 20 21 15 17 16 24 29 24 28 22 15 15 13
10 11 12 12 14 14 16 14 16 17 18 18 20 18 20 20 21 33 33 19 16 17 17 15 15 31 35 36 33 21 23 21 20 16 15 13 14 17 15 18 20 16 16
11 12 13 13 11 12 15 14 15 15 17 18 18 17 14 16 22 25 30 32 30 19 18 15 17 32 36 37 29 30 32 28 14 12 12 12 13 14 15 14 18 16 16
11 12 13 13 13 13 14 15 13 14 13 14 14 14 14 13 13 28 31 32 31 22 17 25 35 37 38 35 37 34 26 14 13 14 13 14 13 13 13 12 12 7 3
12 13 13 13 13 13 11 11 12 12 12 13 14 15 15 15 14 13 13 15 25 22 24 19 22 30 37 29 18 16 12 14 14 13 12 12 10 11 10 10 9 9 8
12 13 13 11 13 13 12 12 12 14 15 15 14 14 15 15 14 27 26 16 13 16 18 14 13 13 13 13 9 9 12 13 13 13 11 10 11 11 11 10 11 10 10
12 10 11 12 11 12 12 12 23 29 32 33 34 28 15 30 36 36 36 35 35 35 17 14 13 13 13 11 11 12 11 13 13 13 11 10 11 11 11 9 8 10 10
12 13 11 13 12 12 12 12 14 18 30 32 32 33 33 32 34 34 33 32 32 28 14 13 13 12 12 12 11 12 10 9 11 10 9 10 11 11 13 10 10 11 9
12 16 11 10 11 12 12 13 13 14 15 15 23 28 30 31 30 30 31 28 14 13 12 12 12 10 11 13 12 13 11 9 9 7 9 9 11 12 12 12 12 13 10
11 10 11 11 11 13 12 12 12 14 14 15 15 18 18 29 30 31 29 11 13 13 11 12 12 12 13 13 12 12 11 8 7 7 8 10 11 11 11 11 10 14 12
9 15 13 10 11 11 10 11 12 13 14 13 13 14 14 14 11 13 12 11 11 10 11 12 12 11 12 12 13 10 6 5 6 6 7 7 8 9 10 11 11 11 11
8 10 13 9 9 10 10 11 11 11 12 13 13 14 30 13 11 11 12 11 11 11 13 8 8 10 7 5 4 4 5 5 5 6 7 8 8 8 8 9 10 10 11
7 8 9 10 10 10 10 10 10 11 12 12 13 12 27 10 10 10 11 11 11 11 9 9 8 7 6 4 4 5 6 6 6 7 8 8 8 9 9 9 10 10 10
7 9 9 8 8 11 9 10 10 10 11 11 11 11 12 11 11 11 11 11 11 11 11 10 9 8 8 8 7 6 5 5 5 7 9 9 9 9 9 10 9 9 9
6 8 9 8 7 8 9 10 10 12 12 11 11 11 11 11 11 12 11 11 11 11 11 11 10 13 9 8 7 7 6 6 6 7 10 9 9 10 9 9 9 11 10
5 7 7 7 7 8 9 9 10 10 11 11 11 10 11 11 11 12 11 10 10 10 12 11 10 13 14 14 13 12 12 13 10 10 8 10 11 12 10 9 10 10 11
5 5 5 6 6 7 7 8 9 9 10 10 10 10 11 11 11 11 11 12 10 10 12 10 12 15 13 10 12 14 15 15 13 14 10 10 10 9 9 11 13 9 9
Wind_Direction
153 339 319 327 325 325 307 296 322 328 328 327 322 310 300 304 310 316 310 296 285 279 265 253 241 236 243 241 235 242 247 240 257 254 222 204 203 201 199 200 190 194 205
238 279 287 282 285 276 280 269 260 263 290 301 307 312 309 313 312 302 297 294 285 281 271 257 255 247 241 246 247 240 241 240 249 257 217 210 202 204 199 194 196 199 202
213 222 228 228 231 239 240 239 246 256 254 259 254 270 295 303 304 300 294 286 281 278 275 268 263 246 253 247 245 249 244 244 245 250 246 202 211 195 184 203 199 200 198
247 255 271 278 279 276 285 290 285 277 276 269 270 273 267 264 270 277 286 286 281 274 264 266 267 257 257 253 248 249 247 243 240 240 242 190 202 206 198 193 198 204 201
272 274 270 273 271 280 290 291 286 283 277 269 271 270 266 263 268 267 266 267 269 276 274 262 262 261 259 252 248 251 247 240 240 237 243 198 200 171 199 189 207 201 212
298 297 299 304 305 300 296 291 288 285 285 280 277 279 279 274 275 278 285 279 277 274 272 271 265 260 257 258 256 253 247 243 240 237 239 239 229 210 194 197 192 185 214
327 317 315 310 307 305 304 301 297 296 296 288 277 273 274 278 282 288 291 288 283 279 278 274 272 265 258 256 257 257 254 249 246 237 240 235 238 208 186 198 208 209 218
308 306 307 306 303 309 311 308 306 305 300 296 292 290 286 279 279 283 289 289 287 283 278 276 272 270 262 255 254 251 249 247 245 245 243 242 238 218 201 200 199 209 265
311 307 322 338 322 314 307 305 307 307 300 297 292 292 291 287 289 289 289 287 280 276 275 275 271 268 264 262 259 255 252 249 247 245 244 246 239 229 200 192 204 195 209
323 321 314 309 303 302 300 298 296 293 291 294 293 292 292 290 293 294 292 282 276 275 274 270 266 263 264 262 258 256 255 252 243 243 242 243 248 234 214 201 197 206 212
315 308 308 307 302 296 294 292 292 291 289 289 288 289 288 287 291 292 291 282 275 272 267 268 268 268 269 265 257 251 252 256 252 242 242 236 229 236 228 212 210 206 212
315 311 304 299 295 294 291 290 287 286 285 284 286 287 284 285 287 291 295 293 289 285 280 279 275 275 273 265 260 254 255 258 247 236 229 226 221 220 228 220 215 220 219
315 304 300 297 294 291 291 289 289 283 281 284 285 288 287 283 277 280 284 287 286 282 281 280 285 286 280 274 261 254 258 254 247 239 221 223 220 221 219 221 217 199 103
303 301 300 300 301 295 291 289 287 285 283 284 283 280 278 278 274 271 265 264 267 269 269 273 272 277 283 275 248 244 248 253 246 239 226 222 213 209 199 188 184 177 179
301 301 301 301 299 296 288 287 283 280 280 281 280 282 289 287 285 284 286 282 273 261 257 257 265 272 277 285 265 246 245 245 232 239 223 208 202 195 190 181 185 179 190
299 304 305 302 297 295 293 290 288 293 296 294 295 293 288 291 297 295 292 291 289 286 278 271 265 264 271 267 272 255 238 238 238 230 217 201 191 188 181 178 173 175 170
293 304 301 299 296 295 296 295 297 299 297 296 297 297 298 298 297 295 296 293 291 288 273 270 269 262 257 267 263 261 248 240 236 225 199 190 187 181 168 167 164 167 168
301 301 296 293 293 294 294 294 295 296 298 298 301 299 300 307 307 301 298 299 288 274 265 264 267 271 252 249 252 262 244 237 225 209 191 182 173 166 171 173 175 174 164
311 306 300 297 297 298 298 298 297 298 298 299 302 304 308 305 302 299 300 288 276 272 264 251 245 246 247 252 246 252 235 215 200 180 177 176 176 168 174 169 167 168 152
305 301 307 303 302 303 305 305 306 309 308 311 314 318 316 310 326 325 319 313 306 279 264 252 246 242 242 242 244 225 196 184 166 165 161 158 159 162 158 155 156 153 152
311 312 309 306 307 306 308 311 311 313 315 318 317 320 328 344 324 321 321 322 322 318 316 256 235 247 252 202 159 148 147 138 137 137 134 135 136 136 139 140 142 141 138
312 312 314 310 309 314 317 314 317 319 321 323 323 323 335 333 331 330 330 331 332 332 339 358 12 14 25 34 83 106 114 116 118 122 121 122 122 125 127 134 134 134 140
316 321 313 310 311 318 322 324 324 327 328 328 330 332 339 341 340 341 342 342 344 349 352 3 12 21 24 33 40 53 82 90 109 124 123 123 124 125 128 128 130 131 130
325 314 308 316 322 330 331 333 331 336 337 340 343 345 345 345 346 348 352 354 357 1 4 6 14 25 21 31 37 47 59 71 77 94 108 113 115 117 118 119 119 121 117
317 306 315 317 326 334 333 339 340 343 343 346 347 349 349 349 353 356 358 0 4 8 11 13 18 25 32 40 50 58 66 69 74 84 90 100 105 109 111 110 112 107 110
304 306 314 318 330 334 337 338 341 344 346 347 348 350 353 355 356 357 360 4 6 10 12 15 16 28 34 44 57 66 73 75 76 81 86 92 96 95 97 98 98 102 104